This is the latest recevied weather packets stored in our database for station/object KC9VAF. If no packets are shown the sender has not sent any weather packets the latest 1 day(s).
| Time | Temp. | Humidity | Pressure | Rain* | Wind** | Luminosity | Snow |
|---|---|---|---|---|---|---|---|
| 1836274668 | 21.67° C | 88% | 1018.8 hPa | 0 mm | 0 m/s | 0 W/m² | - |
| 1836274521 | 21.67° C | 86% | 1019.1 hPa | 0 mm | 0 m/s | 0 W/m² | - |
| 1836274366 | 21.11° C | 89% | 1018.7 hPa | 0 mm | 0.45 m/s, 98° | 0 W/m² | - |
| 1836274220 | 21.67° C | 87% | 1018.9 hPa | 0 mm | 0.45 m/s, 75° | 0 W/m² | - |
| 1836274065 | 21.11° C | 90% | 1018.8 hPa | 0 mm | 0.45 m/s, 97° | 0 W/m² | - |
| 1778046721 | 6.67° C | 54% | 1012.1 hPa | 0 mm | 0 m/s | 0 W/m² | - |
| 1778046418 | 6.67° C | 55% | 1012.3 hPa | 0 mm | 0 m/s | 0 W/m² | - |
| 1778046114 | 6.67° C | 54% | 1012.3 hPa | 0 mm | 0 m/s | 0 W/m² | - |
| 1778045812 | 6.11° C | 54% | 1012.4 hPa | 0 mm | 0 m/s | 0 W/m² | - |
| 1778045522 | 6.11° C | 55% | 1012.2 hPa | 0 mm | 0 m/s | 0 W/m² | - |
| 1778045208 | 6.11° C | 56% | 1012.5 hPa | 0 mm | 0 m/s | 0 W/m² | - |
| 1778044906 | 6.11° C | 55% | 1012.6 hPa | 0 mm | 0 m/s | 0 W/m² | - |
| 1778044603 | 6.11° C | 56% | 1012.5 hPa | 0 mm | 0 m/s | 0 W/m² | - |
| 1778044299 | 5.56° C | 56% | 1012.5 hPa | 0 mm | 0 m/s | 0 W/m² | - |
| 1778043998 | 5.56° C | 55% | 1012.6 hPa | 0 mm | 0 m/s | 0 W/m² | - |
| 1778043694 | 5.56° C | 53% | 1012.7 hPa | 0 mm | 0 m/s | 0 W/m² | - |
| 1778043391 | 6.11° C | 53% | 1012.5 hPa | 0 mm | 0 m/s | 0 W/m² | - |
| 1778043087 | 6.11° C | 52% | 1012.5 hPa | 0 mm | 0 m/s | 0 W/m² | - |
| 1778042785 | 6.67° C | 51% | 1012.3 hPa | 0 mm | 0 m/s | 0 W/m² | - |
| 1778042482 | 6.67° C | 50% | 1012.5 hPa | 0 mm | 0 m/s | 0 W/m² | - |
| 1778042179 | 6.67° C | 49% | 1012.2 hPa | 0 mm | 0.45 m/s, 96° | 0 W/m² | - |
| 1778041877 | 7.22° C | 49% | 1012.3 hPa | 0 mm | 0.45 m/s, 51° | 0 W/m² | - |
| 1778041576 | 7.22° C | 47% | 1012.5 hPa | 0 mm | 0 m/s | 0 W/m² | - |
| 1778041274 | 7.78° C | 46% | 1012.4 hPa | 0 mm | 0 m/s | 0 W/m² | - |
| 1778040972 | 7.78° C | 46% | 1012.2 hPa | 0 mm | 0.45 m/s, 72° | 0 W/m² | - |
* Rain latest hour (hover to see other rain measurements)
** Current wind speed in m/s (hover to see current wind gust speed)